COSMOS 1275 DEB, 12729

Orbit data source: Space-Track

COSMOS 1275 DEB, 12729 is space debris in LEO originally from a launch on Thu, 04 Jun 1981 UTC launched from the Plesetsk Missile And Space Complex (PKMTR). Debris objects in space refer to the collection of defunct objects orbiting the Earth. Examples of debris include non-operational satellites, rocket bodies, and fragments generated from explosions, collisions, or faulty payload assembly.

Loading next visibility...
Identifier
12729, 1981-053BW
Orbit
LEO
Country
Flag of CISCIS
Related business
Manufacturer
Unknown
Mission
Spacecraft
Bus & Motor
Unknown
Mass
Unknown
Launch date (UTC)
1981-06-04 (44 years ago)
Launch vehicle
Unknown
Launch site
Plesetsk Missile And Space Complex (PKMTR)
Object type
Payload
Rocket body
Debris
Shape & HBR
Unknown shape, 0.1 m
Radar Cross Section
Small (<0.1 m²)

Expand to show TLE details & history
Last TLE update: 9 hours ago

TLE from 9 hours ago
0 COSMOS 1275 DEB
1 12729U 81053BW  25301.64967656  .00000908  00000-0  11289-2 0  9998
2 12729  83.0426 263.7825 0130566  45.1589  75.4238 13.60141894 48178
Epoch: 2025-10-28T15:35Z
TLE epoch observation values (Epoch: 2025-10-28T15:35:32.054Z)
Latitude
57.39085°
Longitude
161.7261°
Altitude
1,021.636 km
Speed
7.358 km/s
True Right ascension
04h 51m 22s
True Declination
57° 14' 24"
Sunlit
Object was in full shadow at epoch
Visualization orbit readout
Latitude
Unknown
Longitude
Unknown
Altitude
Unknown
Speed
Unknown
Apparent Right ascension
Unknown
Apparent Declination
Unknown
Sunlit
N/A
Visualization observer readout
Local Sidereal Time
20:28:25
Azimuth
Unknown
Elevation
Unknown
Doppler factor
Unknown
Orbital elements
Apogee altitude
1,129.097 km
Perigee altitude
935.586 km
Semi-major axis
7,410.478 km
Eccentricity
0.01306
Inclination
83.0426°
RAAN
263.7825°
Arg. of periapsis
45.1589°
True anomaly
76.87763°
Mean anomaly
75.4238°
Eccentric anomaly
76.15014°
Mean motion
3.40231 °/min
Orbital period
105.81 mins
BSTAR
0.0011289
Loading maneuver chart data...
Computing Atmospheric mass density...
Loading historical data...
Loading historical data...
Loading historical data...
Loading historical data...
Loading historical data...
Loading historical data...
Loading historical data...

Documentation

Showing up to 5 results
|